Location: Borovka
(49.7741°N, 14.5280°E)
Time: 02:44:22
(UTC+00:00)

ESTCUBE 1 - Pass Details

Date: 19 March 2026
Orbit: 620 x 631 km, 97.7° (Epoch: 13 April)

Event Time Altitude Azimuth Distance (km) Brightness Sun altitude
Exits shadow 20:00:28 57° 251° (WSW) 742 ? -26.2°
Maximum altitude 20:00:35 57° 259° (W) 740 ? -26.3°
Drops below altitude 10° 20:04:55 10° 339° (NNW) 2,020 ? -26.8°
Sets 20:07:10 0° 344° (NNW) 2,934 ? -27.1°
